SCP
0 0 0 0 0 0 0 0 0 0 0 0 0 0 0 0 -0 0 0 -0 -0 -1 -1 -1 -2 -2 -1 -1 -1 -1 -1 -1 -1 -1 -1 -0 -0 -0 -0 -0 -0 -0 -0 -0 -0 -0 -0 -0 -0
0 0 0 0 0 0 0 0 0 0 0 0 0 0 0 -0 -0 -0 -0 -0 -1 -1 -1 -1 -1 -1 -1 -0 -1 -1 -1 -1 -1 -1 -0 -0 -0 -0 -0 -0 -0 -0 -0 -0 -0 -0 -0 -0 0
0 0 0 0 0 0 0 0 0 0 0 0 0 0 -0 0 -0 0 -0 -0 -0 -1 -1 -1 -1 -1 -1 -1 -0 -0 -0 -0 -0 -0 -0 -0 -0 -0 -0 -0 -0 -0 -0 -0 -0 -0 0 0 0
0 0 0 0 0 0 0 0 -0 0 0 0 0 0 0 0 0 0 0 -0 -0 -0 -0 -1 -1 -1 -1 -1 -1 -1 -0 -0 -0 -0 -0 -0 -0 -0 -0 -0 -0 -0 -0 -0 -0 0 0 0 0
0 0 0 0 0 0 0 0 0 -0 0 0 0 0 0 0 0 -0 0 0 -0 0 0 -0 -0 -1 -1 -1 -1 -1 -0 -0 -0 -0 -0 -0 -0 -0 -0 -0 -0 -0 -0 0 0 0 0 0 0
0 0 0 0 0 0 0 0 0 0 0 0 0 0 0 0 -0 -0 0 0 0 0 0 0 0 -0 -0 -0 -0 -0 -0 -0 -0 -0 -0 -0 -0 -0 -0 -0 0 0 0 0 0 0 0 0 0
0 0 0 0 0 0 0 0 0 0 0 0 0 0 0 0 -0 -0 0 0 0 0 0 1 0 0 -0 -0 -0 -0 -0 -0 -0 -0 -0 -0 -0 -0 -0 0 0 0 0 0 0 0 0 0 0
0 0 0 0 0 0 0 0 0 0 0 0 0 -0 0 0 -1 -0 0 0 0 0 1 0 0 0 0 -0 -0 -0 -0 -0 -0 -0 -0 -0 -0 0 0 0 0 0 0 0 0 0 0 0 0
0 0 0 0 0 0 0 0 0 0 0 0 0 0 -0 -1 -1 -1 1 1 1 0 -0 0 1 0 0 0 0 0 -0 -0 -0 -0 -0 0 0 0 0 0 0 0 0 0 0 0 0 0 0
0 0 0 0 0 0 0 0 0 0 0 0 0 0 0 -1 -1 -1 0 1 1 0 0 0 1 1 0 0 0 0 0 0 0 0 -0 0 0 0 0 0 0 0 0 0 0 0 0 0 0
0 0 0 0 0 0 0 0 0 0 0 0 0 0 0 0 -0 -0 -0 1 1 1 1 1 1 1 1 0 1 0 0 0 0 0 0 0 0 0 0 0 0 0 0 0 0 0 0 0 0
0 0 0 0 0 0 0 0 0 0 0 0 0 0 0 0 0 -0 -0 0 1 1 1 1 1 1 1 1 0 0 0 0 0 0 0 0 0 0 0 0 0 0 0 0 -0 -0 -0 -0 -0
0 0 0 0 0 0 0 0 0 0 0 0 0 0 0 0 0 0 0 1 1 1 1 1 1 1 1 0 0 0 0 0 0 0 0 0 0 0 0 0 0 0 0 0 0 0 -0 -0 -0
0 0 0 0 0 0 0 0 0 0 0 0 0 0 0 0 0 0 -0 0 1 1 1 1 1 1 1 1 0 0 0 0 0 0 0 0 0 0 0 0 0 0 0 0 0 0 0 0 0
0 0 0 0 0 0 0 0 0 0 0 0 0 0 0 0 0 0 0 1 1 1 1 1 1 1 1 1 1 1 0 0 0 0 0 0 0 0 0 0 0 0 0 0 0 0 0 0 0
0 0 0 0 0 0 0 0 0 -0 0 0 0 0 0 0 0 0 0 -0 1 1 1 1 1 1 1 1 1 1 1 0 0 0 0 0 0 0 0 0 0 0 0 0 0 0 0 0 0
0 0 0 0 0 0 0 0 -0 0 0 0 0 0 0 0 0 0 -0 -0 1 1 1 1 1 1 1 1 1 1 1 1 0 0 0 0 0 0 0 0 0 1 1 1 1 1 0 1 0
0 -0 -0 0 0 0 0 0 0 0 0 0 0 0 0 0 0 0 0 0 1 0 0 1 2 1 1 1 1 1 1 1 1 0 0 0 0 0 0 0 1 1 1 2 1 1 0 0 -0
-0 0 -0 -0 0 0 0 0 0 0 0 0 0 0 0 0 0 0 1 1 1 1 1 1 1 1 1 1 1 0 1 1 0 0 0 0 0 0 0 0 1 1 2 2 1 0 0 0 0
0 0 0 0 0 0 0 0 0 0 0 0 0 0 0 0 0 0 1 1 1 2 2 1 0 1 1 1 2 1 1 1 1 1 1 1 1 1 1 2 1 0 0 0 1 1 -0 -0 0
0 -0 0 0 0 0 0 0 0 0 0 0 0 0 0 0 0 0 1 1 1 1 1 2 1 1 1 1 1 2 2 2 1 2 2 2 2 2 2 0 0 0 0 0 0 -0 0 0 0
0 0 -0 0 0 0 0 0 0 0 0 0 0 0 0 0 0 1 1 2 1 1 2 0 0 1 1 1 1 2 2 2 2 1 1 1 0 0 0 0 0 0 0 0 -0 -0 -0 0 0
0 0 -0 -0 0 0 0 0 0 0 0 0 0 0 0 0 0 0 1 2 1 1 -0 0 1 1 1 2 2 3 1 0 0 0 0 0 0 0 0 0 0 0 0 0 -0 0 0 0 0
0 0 0 -0 0 0 0 0 0 0 0 0 0 0 0 0 0 0 2 1 1 1 1 1 0 1 1 1 2 2 1 0 0 0 0 0 0 0 0 0 0 0 0 0 0 0 0 0 0
0 0 0 0 0 0 0 0 0 0 0 0 0 0 0 0 0 0 1 1 1 1 1 1 1 1 1 1 2 2 1 0 0 0 0 0 -0 0 0 0 0 -0 0 0 0 0 0 0 0
-0 0 0 0 0 0 0 0 0 0 0 0 0 0 0 0 0 0 0 1 1 1 1 1 0 0 1 1 1 1 0 0 0 0 -0 -0 -0 0 0 0 0 0 0 0 0 0 0 0 0
0 -0 -0 0 0 0 0 0 0 0 0 0 0 0 0 0 0 0 0 1 1 1 1 1 1 1 1 0 1 1 0 0 0 0 0 0 0 0 0 0 0 0 0 0 0 0 0 0 0
0 0 0 0 0 -0 0 0 0 -0 0 0 0 0 0 0 0 0 0 1 1 1 1 1 0 0 0 0 1 0 0 0 0 0 0 0 0 0 0 0 0 0 0 0 0 0 0 0 0
0 0 -0 0 0 -0 0 0 0 0 0 0 0 0 0 0 0 0 0 1 1 1 1 0 0 0 0 0 0 0 0 0 0 0 0 0 0 0 0 0 0 0 0 0 0 0 0 0 0
-0 0 -0 0 0 0 0 0 0 0 0 0 0 0 0 0 0 0 1 2 2 1 0 0 0 0 0 0 0 0 0 0 0 0 0 0 0 0 0 0 0 0 0 0 0 0 0 0 0
Wind_Speed_500mb
23 21 17 10 9 6 18 19 4 12 8 4 14 7 11 29 8 0 12 38 34 74 71 64 61 60 56 51 44 34 26 23 26 28 28 29 27 26 30 33 33 30 27 25 25 23 19 17 15
24 21 19 5 14 21 26 22 31 19 7 6 13 8 13 26 40 11 7 41 39 69 72 67 63 60 57 50 43 36 28 24 25 26 28 29 27 29 33 35 32 29 27 25 25 23 20 18 17
26 29 15 9 15 36 32 18 30 29 21 10 9 10 4 9 15 18 2 17 47 65 73 66 64 60 56 50 44 37 29 25 25 26 29 30 32 34 36 36 33 30 26 25 24 21 19 18 17
26 15 2 15 35 38 46 4 22 32 33 19 8 14 9 17 11 7 16 32 47 65 70 66 65 61 56 51 45 38 30 26 26 25 28 31 35 38 39 37 33 29 26 25 22 20 18 16 17
31 9 12 18 40 24 22 35 2 17 13 16 6 11 8 26 27 22 15 44 65 70 73 67 65 60 56 51 46 38 31 28 28 27 30 34 37 38 37 35 31 27 25 23 21 18 16 15 15
16 6 13 38 40 34 32 21 43 31 22 10 11 15 9 10 7 5 22 51 63 67 71 68 64 59 56 51 45 39 32 31 29 28 32 36 36 36 34 31 28 26 25 23 22 19 17 15 15
19 10 35 36 34 44 26 21 41 32 40 40 17 14 4 13 12 6 31 51 61 69 70 69 66 61 55 51 45 40 35 33 30 29 31 35 36 34 31 28 25 23 21 20 19 17 16 15 16
22 8 29 25 32 35 13 30 19 48 49 47 19 16 12 8 6 11 41 53 63 71 69 67 69 66 60 54 47 41 39 37 33 29 30 33 35 33 29 26 24 22 19 17 16 16 16 18 20
25 19 33 42 36 28 19 24 38 22 35 29 28 69 14 17 8 19 44 51 59 69 73 70 70 68 64 57 52 46 43 40 36 33 32 35 37 35 29 25 22 20 20 20 18 18 17 17 19
26 28 44 15 30 25 37 23 18 19 33 47 39 36 28 10 11 25 46 59 60 73 77 75 74 72 67 63 58 55 51 47 43 38 36 37 37 35 30 25 23 23 22 21 19 16 16 15 16
27 42 33 19 38 36 40 29 25 28 32 29 39 36 18 15 20 28 41 55 73 73 75 77 75 74 71 68 64 61 58 52 47 39 36 35 37 37 34 30 27 24 23 21 19 17 16 17 18
27 35 48 22 46 21 33 27 22 48 47 24 39 33 32 30 20 27 39 50 59 67 75 78 76 75 72 69 66 63 59 55 48 42 38 37 36 36 35 31 25 22 19 18 20 17 14 10 12
41 34 35 38 63 40 45 41 32 36 36 45 49 52 46 41 35 29 35 46 51 68 81 79 78 76 74 69 67 64 60 53 45 41 37 35 34 33 32 29 25 20 17 12 12 12 12 13 15
18 24 37 58 45 28 44 49 43 30 52 52 50 54 54 46 37 25 34 46 60 67 80 82 80 77 75 72 67 62 56 48 43 38 34 33 32 29 29 28 25 26 19 13 11 10 14 16 21
17 24 30 37 35 39 31 46 62 51 46 32 36 37 38 40 40 34 41 52 65 77 82 83 78 78 76 72 65 59 52 46 41 38 36 31 29 28 26 26 27 26 18 15 13 14 18 26 32
17 19 24 18 36 25 39 65 18 46 63 74 73 69 56 52 45 47 45 56 60 75 86 86 81 78 75 70 62 57 49 44 42 40 32 29 26 27 27 23 26 25 21 17 15 17 21 32 39
21 29 27 21 24 34 42 42 28 41 37 57 59 63 64 59 51 51 49 58 60 75 90 90 82 79 74 67 59 52 47 46 41 34 32 30 29 29 30 28 24 24 26 20 10 15 27 38 42
28 32 27 22 6 31 44 44 22 16 10 41 39 44 47 52 50 40 52 57 56 73 86 81 79 77 73 68 59 52 50 46 42 39 34 32 30 30 32 33 32 31 26 16 15 5 20 49 53
35 34 35 20 17 17 27 32 36 41 44 39 32 45 37 39 31 32 53 53 49 67 76 77 76 75 73 65 59 56 53 51 43 36 32 30 30 32 33 37 38 35 23 26 17 20 37 53 47
40 39 42 36 34 24 30 27 28 27 34 51 47 40 43 47 35 29 50 52 63 70 69 58 69 69 67 63 62 61 52 42 35 34 30 29 28 32 30 34 41 42 26 11 13 18 44 51 46
41 43 38 35 28 35 32 46 40 34 37 45 52 51 45 43 39 34 52 58 45 60 48 41 65 67 61 63 62 53 44 36 26 27 27 28 28 28 35 38 37 22 20 18 5 31 31 46 36
42 34 33 32 27 29 16 17 17 32 34 35 44 50 54 40 36 30 48 58 63 74 64 77 76 64 62 55 52 48 37 28 26 33 31 25 23 24 31 31 10 12 16 12 14 29 37 33 30
34 25 33 33 29 28 32 16 29 19 38 41 40 57 57 43 34 36 40 58 79 91 99 79 71 65 53 55 49 43 33 21 16 19 22 24 24 20 13 11 18 16 14 12 30 31 32 26 24
16 19 30 28 24 23 36 31 23 27 38 44 43 45 51 43 38 36 33 43 64 77 76 72 68 59 54 53 42 37 28 16 18 18 17 24 19 7 13 9 15 10 15 24 29 25 23 26 29
27 19 10 15 16 20 27 25 37 21 21 21 36 41 44 43 42 41 41 43 51 57 65 66 60 57 53 50 44 39 26 18 19 41 42 42 26 10 19 20 25 19 23 23 21 20 24 27 31
35 28 10 14 17 29 24 22 34 52 41 25 15 43 44 47 47 45 41 41 45 51 53 54 56 55 49 48 45 35 23 24 33 28 27 31 32 11 19 15 11 16 18 18 21 19 27 29 31
19 26 28 11 21 19 22 45 29 24 33 27 34 28 46 56 56 59 53 49 45 53 57 53 50 48 43 41 40 37 30 25 16 37 21 22 31 25 24 22 15 13 13 17 18 23 27 31 34
20 21 12 10 11 22 23 50 29 29 39 40 29 27 42 50 55 58 57 54 52 55 54 51 48 45 38 38 40 37 32 38 37 50 21 25 27 29 23 17 14 19 15 17 21 26 29 28 24
17 24 15 13 12 17 19 18 36 32 11 40 39 38 27 40 51 59 53 49 50 52 51 53 48 39 39 40 38 35 39 48 44 40 26 26 28 26 25 20 18 14 15 20 22 21 17 17 20
30 29 29 13 23 12 15 6 4 42 29 18 33 42 18 36 44 46 47 50 56 58 59 57 47 46 46 44 41 41 57 48 40 35 33 29 32 28 21 16 10 12 17 17 15 15 18 21 22
Wind_Direction_500mb
225 220 202 178 228 240 233 225 253 207 230 223 138 167 247 258 230 55 350 182 191 177 174 175 175 173 173 172 168 171 176 171 168 171 172 172 169 163 158 158 157 159 161 158 158 161 166 165 160
211 200 176 171 229 221 232 211 208 204 175 182 274 208 264 265 246 285 41 166 183 179 174 175 175 174 174 173 173 176 177 172 168 170 173 172 168 164 162 161 162 163 165 166 168 169 166 166 166
194 181 171 205 223 225 240 203 226 225 228 273 291 259 204 255 268 237 337 181 173 181 176 178 176 176 177 178 179 178 180 176 172 171 173 170 169 166 167 167 168 168 171 173 176 176 175 173 177
173 170 176 228 221 232 232 227 219 220 245 241 241 272 257 270 295 305 272 196 186 181 178 179 178 178 179 182 183 182 183 177 171 171 172 170 168 169 170 171 173 176 177 176 181 190 194 187 186
174 170 217 231 234 240 239 238 182 197 204 194 145 243 256 298 291 296 275 181 178 178 180 180 179 180 183 184 185 184 184 180 175 172 173 172 172 173 175 176 180 186 191 193 196 202 205 204 197
179 182 219 229 228 231 238 233 238 248 244 229 267 268 260 245 337 327 192 179 180 177 178 180 179 183 185 186 186 187 187 184 179 175 176 177 177 178 181 184 188 196 202 206 209 212 216 218 214
222 206 228 241 240 235 233 205 229 230 247 242 253 278 283 281 320 234 184 182 182 180 180 180 179 185 187 189 190 190 189 188 185 181 182 182 181 182 185 190 194 197 201 203 209 216 225 230 229
208 230 236 226 223 245 230 217 226 221 236 244 244 248 216 319 17 190 187 188 184 182 184 183 183 185 187 188 192 193 193 193 190 188 187 188 186 185 188 192 193 196 198 200 208 211 213 219 223
193 229 236 225 223 218 200 211 212 219 219 211 226 242 245 319 312 192 190 185 181 184 186 186 186 187 189 190 190 194 195 195 192 193 192 190 192 190 191 194 193 193 192 192 195 199 205 215 224
205 227 235 240 227 226 223 199 177 204 218 227 228 240 219 265 221 205 194 190 186 186 189 189 190 190 190 193 192 194 196 195 197 197 196 196 196 194 193 193 192 191 191 193 196 196 203 213 223
225 240 234 230 234 238 246 230 230 238 237 210 222 224 232 266 227 216 206 205 199 194 192 192 195 193 193 195 194 197 198 199 200 201 202 201 199 197 197 196 195 192 195 198 202 206 213 222 233
258 251 252 257 237 238 245 243 225 232 234 229 245 252 253 269 272 242 216 204 196 195 196 195 197 198 197 198 200 202 201 202 203 204 203 204 204 203 202 201 199 196 204 210 213 213 217 236 248
249 259 272 252 250 247 251 248 250 246 237 240 251 262 264 265 269 259 225 209 201 199 199 201 201 201 201 202 204 205 205 206 208 210 209 208 209 207 206 204 204 201 190 189 185 202 234 254 266
271 280 268 258 256 251 252 259 246 245 244 241 249 254 261 262 262 256 220 209 213 203 202 203 204 203 204 204 208 209 209 209 210 213 215 213 211 208 209 207 206 195 193 203 217 234 260 275 282
272 280 279 250 248 241 246 263 239 242 246 244 230 240 248 250 248 255 234 216 221 214 204 206 204 204 205 207 208 212 211 212 212 214 214 213 211 206 209 212 203 198 204 207 238 267 292 299 299
269 263 262 249 224 238 204 251 243 233 223 239 246 251 253 255 257 264 237 218 223 213 208 208 206 207 208 210 210 212 214 215 214 216 215 213 210 207 205 201 200 200 205 218 250 284 299 308 306
244 259 255 278 245 216 213 249 248 243 222 233 235 238 243 252 257 258 222 215 220 213 210 207 207 209 210 210 212 211 212 216 218 220 219 217 215 212 208 204 201 204 206 218 274 307 314 316 309
245 239 242 253 23 224 231 241 239 228 254 232 230 233 235 240 246 247 208 211 218 214 210 208 208 210 211 209 209 208 211 216 218 222 223 226 226 223 219 212 210 216 236 217 240 291 324 310 307
258 256 252 224 228 313 251 256 250 256 262 253 240 236 234 237 242 238 201 208 207 209 210 211 211 212 212 208 208 209 212 216 220 226 233 238 239 237 232 228 227 236 239 219 229 307 277 303 300
244 249 250 256 265 263 274 270 267 251 250 246 244 242 236 239 241 211 189 189 203 203 205 211 216 213 213 209 212 213 215 218 226 229 234 239 239 235 234 230 233 239 226 224 294 254 276 294 300
235 237 241 242 242 261 271 280 256 241 238 245 238 239 240 231 219 197 181 189 195 193 179 188 225 217 210 214 212 215 215 218 215 223 236 235 237 244 247 241 237 236 173 110 286 265 286 284 292
236 231 237 242 234 244 230 271 213 218 218 225 231 229 232 226 215 202 185 180 177 185 180 210 216 213 212 215 211 216 215 211 219 238 235 238 242 251 240 216 183 109 52 61 232 279 281 284 293
244 232 224 231 250 249 235 251 254 254 214 217 218 221 225 223 215 206 189 183 177 183 191 208 211 211 207 211 210 208 206 213 245 228 235 243 229 196 210 52 64 332 170 224 242 270 276 289 303
241 238 222 227 230 248 230 225 237 222 215 216 219 215 220 220 219 210 201 186 186 193 201 205 206 204 202 205 199 200 206 202 179 138 101 80 60 216 157 168 159 47 274 261 246 273 285 304 315
179 178 187 207 213 244 205 221 236 203 236 254 222 206 211 214 215 209 187 178 181 185 193 199 200 197 197 197 193 192 181 182 165 114 87 72 72 105 153 151 149 175 230 251 266 277 296 319 319
197 193 200 201 199 224 220 228 231 232 246 269 305 215 203 208 208 206 205 197 179 173 184 188 191 190 187 184 183 186 180 181 141 149 111 94 115 157 200 217 228 225 219 255 272 295 321 315 313
183 211 220 303 233 221 211 238 264 247 233 241 242 227 204 203 201 204 201 197 188 187 186 185 185 186 186 184 186 188 188 194 204 153 148 144 148 174 199 216 190 214 267 293 304 319 317 316 312
233 173 183 217 223 225 205 235 223 195 218 227 235 227 203 196 197 199 198 195 188 191 185 182 186 188 178 178 180 179 180 177 172 174 162 151 155 174 207 230 252 272 283 293 315 316 312 316 334
186 207 210 167 255 227 229 236 212 218 232 213 229 231 200 192 188 192 189 184 185 186 179 185 189 180 174 174 175 180 180 179 176 178 156 165 177 193 198 221 243 261 293 309 312 320 339 11 12
220 219 206 216 206 243 277 301 295 205 204 216 227 216 163 177 175 168 160 156 168 179 183 186 175 176 175 173 173 168 166 170 175 170 173 182 183 187 202 216 245 289 303 314 350 30 38 30 11
Wind_Speed_850mb
23 21 17 10 9 6 18 19 4 12 8 4 14 7 11 29 8 0 12 38 34 74 71 64 61 60 56 51 44 34 26 23 26 28 28 29 27 26 30 33 33 30 27 25 25 23 19 17 15
24 21 19 5 14 21 26 22 31 19 7 6 13 8 13 26 40 11 7 41 39 69 72 67 63 60 57 50 43 36 28 24 25 26 28 29 27 29 33 35 32 29 27 25 25 23 20 18 17
26 29 15 9 15 36 32 18 30 29 21 10 9 10 4 9 15 18 2 17 47 65 73 66 64 60 56 50 44 37 29 25 25 26 29 30 32 34 36 36 33 30 26 25 24 21 19 18 17
26 15 2 15 35 38 46 4 22 32 33 19 8 14 9 17 11 7 16 32 47 65 70 66 65 61 56 51 45 38 30 26 26 25 28 31 35 38 39 37 33 29 26 25 22 20 18 16 17
31 9 12 18 40 24 22 35 2 17 13 16 6 11 8 26 27 22 15 44 65 70 73 67 65 60 56 51 46 38 31 28 28 27 30 34 37 38 37 35 31 27 25 23 21 18 16 15 15
16 6 13 38 40 34 32 21 43 31 22 10 11 15 9 10 7 5 22 51 63 67 71 68 64 59 56 51 45 39 32 31 29 28 32 36 36 36 34 31 28 26 25 23 22 19 17 15 15
19 10 35 36 34 44 26 21 41 32 40 40 17 14 4 13 12 6 31 51 61 69 70 69 66 61 55 51 45 40 35 33 30 29 31 35 36 34 31 28 25 23 21 20 19 17 16 15 16
22 8 29 25 32 35 13 30 19 48 49 47 19 16 12 8 6 11 41 53 63 71 69 67 69 66 60 54 47 41 39 37 33 29 30 33 35 33 29 26 24 22 19 17 16 16 16 18 20
25 19 33 42 36 28 19 24 38 22 35 29 28 69 14 17 8 19 44 51 59 69 73 70 70 68 64 57 52 46 43 40 36 33 32 35 37 35 29 25 22 20 20 20 18 18 17 17 19
26 28 44 15 30 25 37 23 18 19 33 47 39 36 28 10 11 25 46 59 60 73 77 75 74 72 67 63 58 55 51 47 43 38 36 37 37 35 30 25 23 23 22 21 19 16 16 15 16
27 42 33 19 38 36 40 29 25 28 32 29 39 36 18 15 20 28 41 55 73 73 75 77 75 74 71 68 64 61 58 52 47 39 36 35 37 37 34 30 27 24 23 21 19 17 16 17 18
27 35 48 22 46 21 33 27 22 48 47 24 39 33 32 30 20 27 39 50 59 67 75 78 76 75 72 69 66 63 59 55 48 42 38 37 36 36 35 31 25 22 19 18 20 17 14 10 12
41 34 35 38 63 40 45 41 32 36 36 45 49 52 46 41 35 29 35 46 51 68 81 79 78 76 74 69 67 64 60 53 45 41 37 35 34 33 32 29 25 20 17 12 12 12 12 13 15
18 24 37 58 45 28 44 49 43 30 52 52 50 54 54 46 37 25 34 46 60 67 80 82 80 77 75 72 67 62 56 48 43 38 34 33 32 29 29 28 25 26 19 13 11 10 14 16 21
17 24 30 37 35 39 31 46 62 51 46 32 36 37 38 40 40 34 41 52 65 77 82 83 78 78 76 72 65 59 52 46 41 38 36 31 29 28 26 26 27 26 18 15 13 14 18 26 32
17 19 24 18 36 25 39 65 18 46 63 74 73 69 56 52 45 47 45 56 60 75 86 86 81 78 75 70 62 57 49 44 42 40 32 29 26 27 27 23 26 25 21 17 15 17 21 32 39
21 29 27 21 24 34 42 42 28 41 37 57 59 63 64 59 51 51 49 58 60 75 90 90 82 79 74 67 59 52 47 46 41 34 32 30 29 29 30 28 24 24 26 20 10 15 27 38 42
28 32 27 22 6 31 44 44 22 16 10 41 39 44 47 52 50 40 52 57 56 73 86 81 79 77 73 68 59 52 50 46 42 39 34 32 30 30 32 33 32 31 26 16 15 5 20 49 53
35 34 35 20 17 17 27 32 36 41 44 39 32 45 37 39 31 32 53 53 49 67 76 77 76 75 73 65 59 56 53 51 43 36 32 30 30 32 33 37 38 35 23 26 17 20 37 53 47
40 39 42 36 34 24 30 27 28 27 34 51 47 40 43 47 35 29 50 52 63 70 69 58 69 69 67 63 62 61 52 42 35 34 30 29 28 32 30 34 41 42 26 11 13 18 44 51 46
41 43 38 35 28 35 32 46 40 34 37 45 52 51 45 43 39 34 52 58 45 60 48 41 65 67 61 63 62 53 44 36 26 27 27 28 28 28 35 38 37 22 20 18 5 31 31 46 36
42 34 33 32 27 29 16 17 17 32 34 35 44 50 54 40 36 30 48 58 63 74 64 77 76 64 62 55 52 48 37 28 26 33 31 25 23 24 31 31 10 12 16 12 14 29 37 33 30
34 25 33 33 29 28 32 16 29 19 38 41 40 57 57 43 34 36 40 58 79 91 99 79 71 65 53 55 49 43 33 21 16 19 22 24 24 20 13 11 18 16 14 12 30 31 32 26 24
16 19 30 28 24 23 36 31 23 27 38 44 43 45 51 43 38 36 33 43 64 77 76 72 68 59 54 53 42 37 28 16 18 18 17 24 19 7 13 9 15 10 15 24 29 25 23 26 29
27 19 10 15 16 20 27 25 37 21 21 21 36 41 44 43 42 41 41 43 51 57 65 66 60 57 53 50 44 39 26 18 19 41 42 42 26 10 19 20 25 19 23 23 21 20 24 27 31
35 28 10 14 17 29 24 22 34 52 41 25 15 43 44 47 47 45 41 41 45 51 53 54 56 55 49 48 45 35 23 24 33 28 27 31 32 11 19 15 11 16 18 18 21 19 27 29 31
19 26 28 11 21 19 22 45 29 24 33 27 34 28 46 56 56 59 53 49 45 53 57 53 50 48 43 41 40 37 30 25 16 37 21 22 31 25 24 22 15 13 13 17 18 23 27 31 34
20 21 12 10 11 22 23 50 29 29 39 40 29 27 42 50 55 58 57 54 52 55 54 51 48 45 38 38 40 37 32 38 37 50 21 25 27 29 23 17 14 19 15 17 21 26 29 28 24
17 24 15 13 12 17 19 18 36 32 11 40 39 38 27 40 51 59 53 49 50 52 51 53 48 39 39 40 38 35 39 48 44 40 26 26 28 26 25 20 18 14 15 20 22 21 17 17 20
30 29 29 13 23 12 15 6 4 42 29 18 33 42 18 36 44 46 47 50 56 58 59 57 47 46 46 44 41 41 57 48 40 35 33 29 32 28 21 16 10 12 17 17 15 15 18 21 22
Wind_Direction_850mb
225 220 202 178 228 240 233 225 253 207 230 223 138 167 247 258 230 55 350 182 191 177 174 175 175 173 173 172 168 171 176 171 168 171 172 172 169 163 158 158 157 159 161 158 158 161 166 165 160
211 200 176 171 229 221 232 211 208 204 175 182 274 208 264 265 246 285 41 166 183 179 174 175 175 174 174 173 173 176 177 172 168 170 173 172 168 164 162 161 162 163 165 166 168 169 166 166 166
194 181 171 205 223 225 240 203 226 225 228 273 291 259 204 255 268 237 337 181 173 181 176 178 176 176 177 178 179 178 180 176 172 171 173 170 169 166 167 167 168 168 171 173 176 176 175 173 177
173 170 176 228 221 232 232 227 219 220 245 241 241 272 257 270 295 305 272 196 186 181 178 179 178 178 179 182 183 182 183 177 171 171 172 170 168 169 170 171 173 176 177 176 181 190 194 187 186
174 170 217 231 234 240 239 238 182 197 204 194 145 243 256 298 291 296 275 181 178 178 180 180 179 180 183 184 185 184 184 180 175 172 173 172 172 173 175 176 180 186 191 193 196 202 205 204 197
179 182 219 229 228 231 238 233 238 248 244 229 267 268 260 245 337 327 192 179 180 177 178 180 179 183 185 186 186 187 187 184 179 175 176 177 177 178 181 184 188 196 202 206 209 212 216 218 214
222 206 228 241 240 235 233 205 229 230 247 242 253 278 283 281 320 234 184 182 182 180 180 180 179 185 187 189 190 190 189 188 185 181 182 182 181 182 185 190 194 197 201 203 209 216 225 230 229
208 230 236 226 223 245 230 217 226 221 236 244 244 248 216 319 17 190 187 188 184 182 184 183 183 185 187 188 192 193 193 193 190 188 187 188 186 185 188 192 193 196 198 200 208 211 213 219 223
193 229 236 225 223 218 200 211 212 219 219 211 226 242 245 319 312 192 190 185 181 184 186 186 186 187 189 190 190 194 195 195 192 193 192 190 192 190 191 194 193 193 192 192 195 199 205 215 224
205 227 235 240 227 226 223 199 177 204 218 227 228 240 219 265 221 205 194 190 186 186 189 189 190 190 190 193 192 194 196 195 197 197 196 196 196 194 193 193 192 191 191 193 196 196 203 213 223
225 240 234 230 234 238 246 230 230 238 237 210 222 224 232 266 227 216 206 205 199 194 192 192 195 193 193 195 194 197 198 199 200 201 202 201 199 197 197 196 195 192 195 198 202 206 213 222 233
258 251 252 257 237 238 245 243 225 232 234 229 245 252 253 269 272 242 216 204 196 195 196 195 197 198 197 198 200 202 201 202 203 204 203 204 204 203 202 201 199 196 204 210 213 213 217 236 248
249 259 272 252 250 247 251 248 250 246 237 240 251 262 264 265 269 259 225 209 201 199 199 201 201 201 201 202 204 205 205 206 208 210 209 208 209 207 206 204 204 201 190 189 185 202 234 254 266
271 280 268 258 256 251 252 259 246 245 244 241 249 254 261 262 262 256 220 209 213 203 202 203 204 203 204 204 208 209 209 209 210 213 215 213 211 208 209 207 206 195 193 203 217 234 260 275 282
272 280 279 250 248 241 246 263 239 242 246 244 230 240 248 250 248 255 234 216 221 214 204 206 204 204 205 207 208 212 211 212 212 214 214 213 211 206 209 212 203 198 204 207 238 267 292 299 299
269 263 262 249 224 238 204 251 243 233 223 239 246 251 253 255 257 264 237 218 223 213 208 208 206 207 208 210 210 212 214 215 214 216 215 213 210 207 205 201 200 200 205 218 250 284 299 308 306
244 259 255 278 245 216 213 249 248 243 222 233 235 238 243 252 257 258 222 215 220 213 210 207 207 209 210 210 212 211 212 216 218 220 219 217 215 212 208 204 201 204 206 218 274 307 314 316 309
245 239 242 253 23 224 231 241 239 228 254 232 230 233 235 240 246 247 208 211 218 214 210 208 208 210 211 209 209 208 211 216 218 222 223 226 226 223 219 212 210 216 236 217 240 291 324 310 307
258 256 252 224 228 313 251 256 250 256 262 253 240 236 234 237 242 238 201 208 207 209 210 211 211 212 212 208 208 209 212 216 220 226 233 238 239 237 232 228 227 236 239 219 229 307 277 303 300
244 249 250 256 265 263 274 270 267 251 250 246 244 242 236 239 241 211 189 189 203 203 205 211 216 213 213 209 212 213 215 218 226 229 234 239 239 235 234 230 233 239 226 224 294 254 276 294 300
235 237 241 242 242 261 271 280 256 241 238 245 238 239 240 231 219 197 181 189 195 193 179 188 225 217 210 214 212 215 215 218 215 223 236 235 237 244 247 241 237 236 173 110 286 265 286 284 292
236 231 237 242 234 244 230 271 213 218 218 225 231 229 232 226 215 202 185 180 177 185 180 210 216 213 212 215 211 216 215 211 219 238 235 238 242 251 240 216 183 109 52 61 232 279 281 284 293
244 232 224 231 250 249 235 251 254 254 214 217 218 221 225 223 215 206 189 183 177 183 191 208 211 211 207 211 210 208 206 213 245 228 235 243 229 196 210 52 64 332 170 224 242 270 276 289 303
241 238 222 227 230 248 230 225 237 222 215 216 219 215 220 220 219 210 201 186 186 193 201 205 206 204 202 205 199 200 206 202 179 138 101 80 60 216 157 168 159 47 274 261 246 273 285 304 315
179 178 187 207 213 244 205 221 236 203 236 254 222 206 211 214 215 209 187 178 181 185 193 199 200 197 197 197 193 192 181 182 165 114 87 72 72 105 153 151 149 175 230 251 266 277 296 319 319
197 193 200 201 199 224 220 228 231 232 246 269 305 215 203 208 208 206 205 197 179 173 184 188 191 190 187 184 183 186 180 181 141 149 111 94 115 157 200 217 228 225 219 255 272 295 321 315 313
183 211 220 303 233 221 211 238 264 247 233 241 242 227 204 203 201 204 201 197 188 187 186 185 185 186 186 184 186 188 188 194 204 153 148 144 148 174 199 216 190 214 267 293 304 319 317 316 312
233 173 183 217 223 225 205 235 223 195 218 227 235 227 203 196 197 199 198 195 188 191 185 182 186 188 178 178 180 179 180 177 172 174 162 151 155 174 207 230 252 272 283 293 315 316 312 316 334
186 207 210 167 255 227 229 236 212 218 232 213 229 231 200 192 188 192 189 184 185 186 179 185 189 180 174 174 175 180 180 179 176 178 156 165 177 193 198 221 243 261 293 309 312 320 339 11 12
220 219 206 216 206 243 277 301 295 205 204 216 227 216 163 177 175 168 160 156 168 179 183 186 175 176 175 173 173 168 166 170 175 170 173 182 183 187 202 216 245 289 303 314 350 30 38 30 11